Date,TemperatureHighF,TemperatureAvgF,TemperatureLowF,DewpointHighF,DewpointAvgF,DewpointLowF,HumidityHigh,HumidityAvg,HumidityLow,PressureMaxIn,PressureMinIn,WindSpeedMaxMPH,WindSpeedAvgMPH,GustSpeedMaxMPH,PrecipitationSumIn
2013-1-1,20.8,3.0,-16.2,11.5,-1.7,-21.1,90,81,63,30.64,30.22,7,1,7,0.01
2013-1-2,10.8,-11.1,-24.2,5.2,-16.0,-29.6,87,78,68,31.00,30.65,5,1,8,0.00
2013-1-3,13.8,-13.6,-28.8,1.0,-19.8,-34.6,83,74,53,31.17,31.01,5,1,7,0.00
2013-1-4,14.0,-11.3,-28.8,-0.2,-17.5,-34.6,84,74,51,31.14,30.89,4,-20,7,0.00
2013-1-5,12.6,-9.8,-27.8,1.2,-15.9,-33.5,85,74,58,31.17,30.96,7,1,7,0.00
2013-1-6,15.4,-6.4,-22.9,3.0,-12.4,-28.3,84,75,55,31.17,30.87,7,1,7,0.00
2013-1-7,22.6,0.6,-14.3,7.3,-5.8,-18.6,85,75,51,30.87,30.54,6,2,7,0.00
2013-1-8,21.0,-1.4,-18.9,10.2,-7.4,-23.6,89,76,53,30.95,30.57,5,1,6,0.00
2013-1-9,24.3,1.8,-14.1,11.1,-4.3,-18.9,86,76,55,31.05,30.77,8,2,9,0.00
2013-1-10,17.1,-0.7,-17.0,12.4,-5.2,-21.8,90,81,70,30.75,30.23,4,1,9,0.00
2013-1-11,30.4,16.6,-4.9,24.1,6.4,-12.1,85,65,44,30.20,29.75,23,12,37,0.00
2013-1-12,9.0,-8.1,-26.0,-4.4,-15.2,-31.5,83,71,53,30.54,30.03,7,2,10,0.00
2013-1-13,6.6,-10.2,-27.2,-1.3,-15.8,-32.8,83,76,63,30.67,30.56,7,-20,11,0.00
2013-1-14,12.4,-6.5,-18.9,2.8,-11.9,-24.0,84,77,65,30.65,30.50,5,2,7,0.00
2013-1-15,12.2,-7.3,-27.2,-2.7,-14.7,-33.0,83,71,48,30.97,30.65,9,1,9,0.00
2013-1-16,19.6,0.5,-15.5,6.6,-6.7,-20.4,84,72,55,31.01,30.87,5,2,9,0.00
2013-1-17,24.4,4.5,-11.2,12.0,-1.7,-15.7,88,76,57,31.09,30.92,4,1,6,0.01
2013-1-18,22.6,1.3,-11.7,13.3,-3.1,-15.9,88,82,67,30.95,30.78,5,1,6,0.00
2013-1-19,24.8,2.3,-10.1,16.5,-2.7,-14.3,91,80,60,31.00,30.86,5,1,8,0.00
2013-1-20,25.3,-0.2,-17.9,13.1,-5.5,-22.4,87,78,55,30.98,30.79,4,1,6,0.00
2013-1-21,30.9,4.2,-13.9,14.0,-2.0,-18.6,86,76,47,30.94,30.75,6,2,7,0.00
2013-1-22,28.8,3.5,-15.7,13.8,-3.1,-20.2,86,75,51,30.94,30.80,4,1,9,0.00
2013-1-23,24.6,3.0,-17.0,12.6,-3.2,-21.8,88,76,54,31.03,30.88,6,1,8,0.00
2013-1-24,34.9,12.5,-9.2,18.5,5.1,-13.5,88,74,44,30.92,30.59,5,2,8,0.00
2013-1-25,39.7,21.7,5.2,28.9,16.5,1.4,91,81,64,30.64,30.36,7,2,11,0.00
2013-1-26,35.6,23.4,8.1,33.3,21.2,5.5,96,91,85,30.40,29.97,15,2,20,0.02
2013-1-27,47.8,32.1,17.4,35.8,26.9,15.8,96,82,52,29.95,29.82,13,4,16,0.04
2013-1-28,40.5,33.4,22.6,32.7,26.8,16.5,87,77,60,29.81,29.52,23,11,29,0.01
2013-1-29,25.0,19.7,12.0,17.2,9.2,2.5,87,64,39,30.02,29.54,17,9,27,0.00
2013-1-30,30.9,15.6,-2.4,13.5,3.7,-8.1,82,61,37,30.33,30.03,10,3,11,0.00
2013-1-31,39.6,23.3,8.6,19.6,12.2,4.6,86,66,33,30.42,30.32,8,3,13,0.00
2013-2-1,39.7,21.1,3.9,19.8,12.5,0.3,86,72,40,30.47,30.30,8,3,12,0.00
2013-2-2,39.7,20.3,3.0,21.4,12.1,-0.4,88,73,37,30.63,30.48,6,2,9,0.00
2013-2-3,33.4,21.3,8.4,21.6,14.6,5.5,90,77,51,30.56,30.18,5,2,8,0.00
2013-2-4,44.1,25.0,6.8,20.8,14.5,3.6,90,69,25,30.28,30.09,6,2,12,0.00
2013-2-5,45.9,25.3,8.1,22.5,14.5,4.3,87,68,31,30.26,30.08,7,3,8,0.00
2013-2-6,39.9,26.0,8.4,26.4,18.0,4.8,89,74,46,30.12,29.96,8,2,11,0.00
2013-2-7,43.0,27.9,14.5,25.3,16.5,11.1,90,66,31,30.20,30.07,8,2,9,0.00
2013-2-8,45.7,31.4,14.4,24.1,20.0,11.7,89,65,37,30.19,29.75,22,9,33,0.00
2013-2-9,36.3,28.5,21.7,23.2,16.9,8.4,81,62,38,29.74,29.42,22,9,29,0.00
2013-2-10,33.3,23.2,12.7,12.4,8.6,4.5,81,55,32,30.00,29.62,15,5,20,0.00
2013-2-11,31.5,23.9,12.2,19.2,12.8,3.7,88,65,35,30.06,29.91,17,8,23,0.00
2013-2-12,31.3,16.4,1.9,7.9,2.5,-3.6,81,58,25,30.34,30.07,9,3,17,0.00
2013-2-13,36.9,19.4,2.5,14.2,8.2,-2.6,82,64,37,30.38,30.22,6,3,9,0.00
2013-2-14,39.0,22.2,4.5,16.3,9.7,0.7,85,62,30,30.33,30.22,13,5,23,0.00
2013-2-15,36.1,21.8,4.8,12.6,7.1,0.3,81,57,24,30.51,30.34,21,7,29,0.00
2013-2-16,45.3,24.1,7.0,13.8,8.3,1.0,79,56,22,30.58,30.28,7,3,11,0.00
2013-2-17,47.7,25.6,4.6,14.9,8.1,0.1,87,54,18,30.29,29.78,22,4,24,0.00
2013-2-18,37.2,24.5,10.2,14.2,2.0,-10.3,84,43,14,30.18,29.80,20,6,26,0.00
2013-2-19,44.8,21.3,0.3,14.4,4.8,-5.4,79,54,18,30.27,29.89,9,3,13,0.00
2013-2-20,34.3,24.4,16.5,30.4,19.9,11.7,93,83,72,29.88,29.52,15,4,19,0.06
2013-2-21,35.2,21.3,3.7,22.3,14.9,0.5,92,78,51,29.94,29.60,10,3,17,0.00
2013-2-22,31.8,21.9,8.8,21.0,15.7,6.1,91,79,45,30.05,29.86,11,3,14,0.00
2013-2-23,36.5,17.5,-0.2,22.1,8.7,-4.2,89,71,42,30.19,29.83,8,3,11,0.02
2013-2-24,33.6,22.2,11.5,19.0,11.9,6.1,92,67,39,30.02,29.77,22,8,31,0.00
2013-2-25,38.5,21.7,7.0,8.8,5.7,1.2,79,54,22,30.14,29.98,10,5,15,0.00
2013-2-26,31.5,20.0,4.6,18.3,8.2,0.9,86,62,39,30.20,29.84,22,7,28,0.00
2013-2-27,34.3,19.7,2.1,5.7,1.8,-3.1,79,49,24,30.41,30.20,10,4,18,0.00
2013-2-28,37.9,21.6,1.2,9.3,3.4,-4.4,78,49,24,30.51,30.36,13,4,19,0.00
2013-3-1,46.6,31.5,14.4,18.7,14.3,7.5,77,51,29,30.46,30.29,18,7,26,0.00
2013-3-2,51.4,32.3,14.7,23.5,17.6,10.9,85,59,29,30.47,30.21,9,3,12,0.00
2013-3-3,57.9,36.5,18.0,25.7,19.1,13.8,87,56,18,30.20,29.74,22,6,37,0.00
2013-3-4,49.6,34.5,20.8,33.6,22.7,9.3,91,64,30,30.10,29.64,22,8,35,0.00
2013-3-5,48.9,28.1,8.8,14.9,7.5,-0.6,82,48,13,30.37,30.10,7,3,12,0.00
2013-3-6,56.1,36.3,17.2,20.5,16.1,10.4,83,48,20,30.26,29.93,18,5,22,0.00
2013-3-7,57.7,37.9,18.0,19.9,11.8,5.2,77,42,12,30.03,29.88,18,6,23,0.00
2013-3-8,54.1,36.4,19.9,31.5,22.2,13.8,92,61,22,29.94,29.58,22,8,31,0.00
2013-3-9,32.4,27.7,22.3,30.0,23.4,14.9,94,85,55,29.97,29.53,16,6,22,0.00
2013-3-10,33.4,22.1,3.0,20.3,15.8,-0.4,94,78,54,30.30,29.98,8,2,9,0.28
2013-3-11,44.4,27.8,9.9,24.8,17.3,6.4,90,68,34,30.33,30.10,5,2,9,0.01
2013-3-12,52.0,36.7,23.7,27.3,22.9,19.8,90,61,31,30.21,30.12,7,3,13,0.00
2013-3-13,56.1,40.3,23.5,27.5,23.7,19.9,88,56,27,30.30,30.16,8,4,14,0.00
2013-3-14,63.1,44.9,27.0,27.1,20.4,11.1,84,44,16,30.30,30.08,9,3,13,0.00
2013-3-15,67.3,44.0,20.7,25.0,19.1,14.2,88,45,13,30.12,29.82,16,5,26,0.00
2013-3-16,55.0,37.6,23.4,37.8,25.1,17.4,92,64,27,29.84,29.63,22,4,33,0.01
2013-3-17,53.2,36.6,23.4,36.5,24.3,8.2,96,67,18,29.81,29.53,28,8,34,0.01
2013-3-18,50.4,36.0,19.6,18.1,7.1,-6.7,72,36,9,29.94,29.78,22,7,34,0.00
2013-3-19,49.6,34.6,17.2,14.9,7.4,1.0,72,36,15,30.18,29.94,17,4,21,0.00
2013-3-20,53.8,34.8,11.7,24.4,13.6,1.6,76,45,18,30.23,29.85,27,6,31,0.00
2013-3-21,52.2,39.2,29.3,29.8,22.1,10.6,77,53,30,29.83,29.44,26,8,46,0.02
2013-3-22,48.7,33.5,14.5,16.3,7.4,-4.0,79,39,12,29.75,29.54,26,8,42,0.00
2013-3-23,29.7,22.4,10.0,13.3,7.3,1.9,79,54,35,30.17,29.57,21,9,35,0.00
2013-3-24,32.7,17.9,0.1,5.5,0.7,-3.8,85,52,21,30.28,30.13,20,6,28,0.00
2013-3-25,39.6,23.4,6.1,3.4,-2.7,-5.8,69,35,14,30.32,30.21,13,4,15,0.00
2013-3-26,55.8,34.5,12.0,14.9,8.3,0.0,70,38,15,30.30,29.95,23,6,28,0.00
2013-3-27,59.7,45.0,26.8,21.4,14.3,7.0,63,32,12,29.99,29.80,17,6,25,0.00
2013-3-28,60.3,44.3,25.9,18.7,14.6,10.8,61,33,15,29.99,29.86,24,4,24,0.00
2013-3-29,57.9,43.5,26.8,23.5,19.7,15.1,64,41,22,30.04,29.91,13,4,20,0.00
2013-3-30,60.6,42.2,18.0,28.4,20.3,11.1,83,46,21,30.12,29.91,12,3,28,0.00
2013-3-31,62.2,45.4,25.3,30.7,19.5,7.3,89,45,15,30.00,29.77,8,3,22,0.00
2013-4-1,63.1,47.1,28.8,24.1,14.4,6.3,59,30,11,29.88,29.65,21,7,27,0.00
2013-4-2,58.3,42.2,21.0,32.0,16.3,-2.2,87,42,9,29.84,29.59,22,7,29,0.00
2013-4-3,56.5,41.3,31.3,32.7,24.3,14.4,92,58,21,30.05,29.84,15,5,28,0.00
2013-4-4,63.7,43.5,16.9,22.1,15.2,10.4,78,39,14,30.18,29.92,13,5,19,0.00
2013-4-5,63.9,48.6,33.4,27.7,15.8,9.0,57,29,12,29.98,29.60,26,9,33,0.00
2013-4-6,61.2,47.6,28.8,31.6,25.3,17.4,84,47,19,29.76,29.60,11,5,16,0.00
2013-4-7,61.9,46.7,28.9,28.2,20.2,13.3,72,39,15,29.70,29.50,17,6,27,0.00
2013-4-8,59.4,47.2,27.9,28.0,19.2,13.1,55,34,20,29.57,29.13,26,11,39,0.00
2013-4-9,46.0,33.1,24.6,32.5,26.5,18.9,92,78,44,29.75,29.16,31,14,37,0.00
2013-4-10,40.6,30.4,23.2,27.3,22.0,12.2,92,72,43,29.91,29.76,13,5,22,0.03
2013-4-11,50.5,34.7,16.3,29.1,18.6,10.8,83,54,33,29.94,29.79,15,4,20,0.00
2013-4-12,55.9,41.6,25.2,31.1,22.7,16.2,89,51,23,29.86,29.71,17,3,18,0.00
2013-4-13,60.3,45.0,21.4,29.8,21.4,13.1,93,48,16,29.83,29.36,30,8,33,0.00
2013-4-14,56.1,45.7,33.3,35.4,26.4,18.0,94,52,23,29.44,29.27,27,11,37,0.05
2013-4-15,62.4,50.9,39.6,28.6,23.7,18.1,58,37,20,29.46,29.31,33,15,36,0.00
2013-4-16,66.7,53.7,38.5,21.7,14.1,-4.2,46,24,6,29.50,29.29,39,18,45,0.00
2013-4-17,47.7,39.1,25.9,33.8,19.6,12.9,81,47,26,29.71,29.34,30,11,35,0.00
2013-4-18,36.0,25.4,13.5,20.7,9.0,0.3,91,55,23,30.30,29.73,22,10,30,0.01
2013-4-19,52.7,33.0,9.7,16.3,8.8,2.1,74,41,17,30.38,29.99,13,5,18,0.00
2013-4-20,51.3,41.3,27.0,28.9,21.2,13.8,80,46,29,29.99,29.74,21,5,23,0.00
2013-4-21,59.5,42.1,20.8,27.7,19.4,10.9,93,48,17,30.08,29.84,14,4,18,0.00
2013-4-22,65.7,46.9,27.1,32.2,19.2,10.9,83,39,14,29.91,29.58,24,7,36,0.00
2013-4-23,46.0,34.9,21.7,28.9,14.7,-8.1,73,47,14,30.04,29.60,24,9,36,0.00
2013-4-24,53.6,37.3,15.8,16.5,7.2,2.5,56,32,14,30.15,30.03,17,5,22,0.00
2013-4-25,63.9,43.6,23.7,34.5,22.9,11.8,70,47,20,30.10,29.78,24,8,35,0.00
2013-4-26,58.8,45.8,29.8,36.7,29.4,16.2,95,58,19,30.10,29.86,30,6,30,0.00
2013-4-27,65.1,46.2,22.8,28.8,18.5,5.7,91,43,10,30.17,29.93,13,4,21,0.00
2013-4-28,70.5,50.5,23.4,19.2,14.1,9.1,64,28,10,30.00,29.70,18,5,20,0.00
2013-4-29,73.6,54.6,30.7,22.3,18.7,13.5,56,28,10,29.74,29.44,18,6,36,0.00
2013-4-30,73.8,56.4,33.3,22.5,17.1,11.1,51,25,10,29.53,29.41,29,10,37,0.00
2013-5-1,65.7,50.4,25.0,24.1,17.6,9.0,62,29,12,30.04,29.46,29,11,39,0.00
2013-5-2,50.5,33.6,14.5,17.1,8.3,-2.2,81,43,12,30.42,30.07,16,5,23,0.00
2013-5-3,62.4,41.2,13.8,15.3,10.1,3.4,78,36,10,30.39,29.90,15,5,23,0.00
2013-5-4,65.5,47.1,24.1,20.1,13.9,1.6,67,30,8,29.91,29.73,27,8,32,0.00
2013-5-5,61.3,46.8,28.0,32.0,21.4,16.9,67,40,20,29.97,29.81,13,5,28,0.00
2013-5-6,53.2,45.7,35.2,40.3,34.9,30.0,95,67,47,29.88,29.70,17,5,24,0.02
2013-5-7,63.9,47.8,28.4,40.8,28.9,17.4,97,56,19,29.94,29.73,26,6,26,0.00
2013-5-8,54.0,44.3,34.2,39.4,32.3,25.9,96,66,35,29.89,29.72,17,6,26,0.03
2013-5-9,52.0,40.5,23.9,35.2,29.9,22.1,94,68,44,30.08,29.89,21,6,27,0.01
2013-5-10,60.1,45.6,28.0,31.5,27.8,23.9,90,55,26,30.16,29.99,18,6,29,0.00
2013-5-11,64.2,49.0,32.2,36.3,28.8,21.0,86,51,20,30.21,30.04,11,4,21,0.00
2013-5-12,70.0,52.5,31.5,36.7,31.3,26.4,89,51,20,30.16,29.93,13,5,21,0.00
2013-5-13,74.8,57.1,32.7,36.5,30.4,22.5,74,41,14,30.08,29.85,23,4,24,0.00
2013-5-14,73.6,55.2,37.8,46.4,36.8,29.3,83,56,20,29.87,29.63,15,4,23,0.04
2013-5-15,70.9,52.8,39.7,46.9,42.8,37.8,95,73,30,29.76,29.63,19,4,37,0.10
2013-5-16,73.2,55.2,35.4,46.0,35.6,27.9,97,57,19,29.80,29.60,15,3,21,0.01
2013-5-17,74.3,56.0,35.4,33.1,20.9,6.8,70,33,8,29.74,29.58,20,6,28,0.00
2013-5-18,67.6,53.2,35.4,32.7,22.8,14.0,59,33,15,29.70,29.52,24,8,32,0.00
2013-5-19,54.7,44.1,30.4,35.6,30.2,24.8,89,60,32,29.80,29.64,24,6,27,0.01
2013-5-20,61.0,44.3,22.8,37.4,29.2,20.7,94,61,25,29.88,29.76,23,6,40,0.00
2013-5-21,67.3,50.5,29.5,36.1,28.9,18.0,95,52,17,29.93,29.68,14,5,25,0.01
2013-5-22,74.5,56.8,33.8,29.8,23.8,14.4,73,34,12,29.73,29.52,20,6,25,0.00
2013-5-23,77.9,61.3,37.9,36.7,25.2,16.9,61,30,10,29.71,29.54,22,9,32,0.00
2013-5-24,76.1,62.0,46.9,38.5,26.0,18.5,63,30,12,29.70,29.59,28,10,32,0.00
2013-5-25,76.5,59.8,37.8,28.4,20.5,12.7,56,27,9,29.77,29.61,21,8,28,0.00
2013-5-26,76.8,60.8,43.9,25.3,16.2,7.3,43,21,7,29.71,29.55,26,8,28,0.00
2013-5-27,71.8,55.7,28.6,22.3,17.6,12.2,62,26,10,29.67,29.51,19,6,24,0.00
2013-5-28,73.6,55.7,30.9,26.2,15.8,6.4,48,24,9,29.61,29.37,20,7,27,0.00
2013-5-29,66.0,54.1,37.8,35.4,25.6,19.0,59,36,18,29.50,29.29,23,10,29,0.00
2013-5-30,69.6,54.9,33.4,29.8,24.6,19.8,72,35,16,29.62,29.47,26,11,34,0.00
2013-5-31,70.9,54.3,35.1,26.1,17.1,6.6,63,27,9,29.81,29.58,28,10,40,0.00
2013-6-1,72.3,53.6,30.2,28.0,16.0,10.0,58,27,10,29.94,29.82,17,6,21,0.00
2013-6-2,78.6,58.3,31.1,33.8,29.5,24.3,82,39,14,29.91,29.60,21,6,29,0.00
2013-6-3,79.0,60.8,45.5,43.5,33.9,23.9,63,41,13,29.64,29.48,29,9,46,0.00
2013-6-4,79.2,60.2,34.9,39.7,32.7,27.5,80,40,16,29.74,29.63,24,6,32,0.00
2013-6-5,77.2,61.0,41.7,44.8,35.1,25.7,77,44,15,29.72,29.54,30,7,33,0.00
2013-6-6,75.4,56.9,36.0,40.1,34.2,24.3,93,50,16,29.78,29.65,27,5,33,0.00
2013-6-7,72.3,57.5,37.0,40.8,36.7,31.1,81,50,23,29.82,29.61,25,5,31,0.00
2013-6-8,80.1,61.7,43.5,40.3,34.9,28.2,72,43,16,29.65,29.52,17,6,27,0.00
2013-6-9,84.9,64.5,38.5,42.8,33.6,21.7,89,42,11,29.75,29.60,9,4,17,0.00
2013-6-10,88.2,67.9,44.1,45.7,32.7,21.7,66,33,10,29.70,29.49,25,6,39,0.00
2013-6-11,83.8,67.2,43.5,35.8,25.1,12.7,57,26,7,29.69,29.55,30,10,37,0.00
2013-6-12,84.6,64.9,40.6,36.5,26.7,20.1,52,27,11,29.82,29.66,15,5,19,0.00
2013-6-13,84.7,65.3,44.8,40.3,32.4,22.8,61,31,13,29.79,29.62,26,9,42,0.01
2013-6-14,80.8,67.8,55.8,43.7,38.6,28.9,55,37,16,29.72,29.45,19,7,24,0.00
2013-6-15,81.7,64.2,45.9,44.1,36.0,26.1,76,40,13,29.73,29.56,15,6,30,0.00
2013-6-16,78.6,62.1,45.9,40.6,36.7,32.4,71,42,19,29.79,29.65,19,6,34,0.00
2013-6-17,77.9,58.0,37.0,45.5,38.5,30.7,85,53,19,29.87,29.76,23,5,35,0.05
2013-6-18,77.9,61.3,42.8,50.0,41.7,35.2,87,53,24,29.85,29.57,19,5,28,0.00
2013-6-19,82.2,61.4,35.2,43.0,24.1,7.9,91,39,7,29.69,29.53,23,8,40,0.00
2013-6-20,81.0,63.4,36.7,25.0,17.9,10.6,42,19,8,29.66,29.55,21,8,35,0.00
2013-6-21,81.3,64.5,39.6,27.0,20.4,13.3,39,21,9,29.70,29.53,22,10,28,0.00
2013-6-22,79.2,63.7,46.2,30.4,23.4,16.5,45,24,11,29.62,29.48,18,8,27,0.00
2013-6-23,81.3,61.9,35.4,27.5,20.7,15.1,58,24,9,29.70,29.49,17,6,24,0.00
2013-6-24,78.4,62.9,42.8,29.5,20.4,11.1,38,22,8,29.64,29.54,23,8,28,0.00
2013-6-25,83.5,66.4,47.1,41.0,26.3,18.0,40,23,13,29.67,29.55,11,5,17,0.00
2013-6-26,87.4,66.9,41.7,43.2,33.4,23.4,66,34,10,29.80,29.65,6,2,11,0.00
2013-6-27,90.7,71.7,47.3,45.0,36.2,20.1,67,32,8,29.83,29.72,25,4,33,0.00
2013-6-28,84.6,71.2,56.1,47.1,43.5,38.8,61,39,21,29.81,29.65,28,6,30,0.00
2013-6-29,83.5,62.2,47.1,52.2,45.6,39.9,89,59,25,29.84,29.68,22,4,36,0.01
2013-6-30,81.7,59.0,40.5,51.4,46.6,39.0,96,70,25,29.93,29.74,23,4,34,0.06
2013-7-1,75.7,57.9,43.9,55.8,47.2,39.4,98,74,27,29.97,29.83,20,5,26,0.06
2013-7-2,79.3,61.7,44.8,53.4,46.0,37.6,96,62,23,29.95,29.71,18,4,28,0.00
2013-7-3,78.1,61.9,48.9,51.6,45.2,34.7,94,59,21,29.80,29.63,18,5,30,0.00
2013-7-4,83.7,65.6,44.2,46.6,42.4,35.1,88,49,19,29.72,29.53,15,4,19,0.00
2013-7-5,81.3,63.1,51.1,51.4,47.5,42.3,79,59,28,29.63,29.49,17,5,30,0.00
2013-7-6,78.6,64.4,46.0,53.6,48.6,43.7,94,61,32,29.71,29.57,15,5,23,0.00
2013-7-7,84.0,68.1,51.3,53.4,49.2,42.8,90,55,25,29.69,29.54,19,4,24,0.00
2013-7-8,80.4,67.3,51.8,55.4,50.4,44.8,94,58,31,29.78,29.68,12,4,21,0.01
2013-7-9,86.5,69.8,52.9,51.4,46.2,34.9,79,47,17,29.85,29.69,14,4,28,0.00
2013-7-10,81.1,67.1,49.6,50.7,47.2,42.3,80,51,27,29.81,29.65,21,5,29,0.00
2013-7-11,84.4,66.6,47.5,52.9,48.3,43.5,89,56,27,29.80,29.57,10,3,15,0.00
2013-7-12,81.7,67.8,54.0,53.8,49.8,44.8,73,54,31,29.67,29.54,18,4,27,0.00
2013-7-13,81.1,66.7,51.6,61.2,52.1,47.5,87,63,32,29.74,29.63,21,4,26,0.17
2013-7-14,81.3,63.3,53.1,59.7,55.1,50.2,96,77,34,29.80,29.64,17,4,23,0.35
2013-7-15,67.5,60.5,54.7,57.2,53.8,45.9,97,80,59,29.82,29.72,13,3,19,0.04
2013-7-16,72.9,60.5,45.9,51.3,46.0,42.1,91,62,37,29.90,29.80,19,6,26,0.00
2013-7-17,78.4,64.0,46.9,49.3,46.3,42.3,89,56,31,29.98,29.78,16,4,23,0.00
2013-7-18,82.6,63.8,50.4,54.3,50.5,47.3,90,65,33,29.86,29.64,24,6,27,0.03
2013-7-19,80.1,60.9,47.7,56.5,52.6,46.0,96,77,36,29.83,29.68,16,3,29,0.77
2013-7-20,80.4,65.9,52.2,56.8,52.7,45.5,96,66,33,29.81,29.55,21,3,25,0.00
2013-7-21,84.4,68.7,52.7,54.7,47.2,30.7,90,52,15,29.65,29.50,14,4,17,0.00
2013-7-22,85.5,68.9,50.0,49.8,45.5,37.9,86,48,19,29.68,29.53,11,3,17,0.00
2013-7-23,86.4,67.9,48.9,49.5,43.5,34.9,83,46,17,29.72,29.61,21,4,38,0.00
2013-7-24,82.0,67.0,54.1,52.9,47.8,41.9,80,54,25,29.77,29.65,25,6,34,0.00
2013-7-25,82.0,64.4,48.6,58.8,50.8,43.7,95,66,27,29.86,29.65,16,5,23,0.11
2013-7-26,78.6,63.8,51.4,54.5,50.5,45.1,94,65,33,29.90,29.78,17,5,31,0.00
2013-7-27,77.5,63.1,49.8,53.4,49.8,43.7,92,65,31,29.88,29.65,15,4,21,0.00
2013-7-28,70.2,59.7,54.9,58.1,54.5,51.3,96,84,56,29.73,29.58,14,3,18,0.40
2013-7-29,74.8,60.0,47.5,57.6,50.4,45.7,98,74,37,29.90,29.70,12,3,28,0.00
2013-7-30,80.2,63.2,43.3,50.9,44.6,38.8,94,57,23,30.02,29.87,14,3,19,0.00
2013-7-31,83.1,66.8,45.1,50.7,43.0,37.2,88,48,21,29.99,29.74,7,2,11,0.00
2013-8-1,75.9,64.3,50.9,58.3,51.4,43.5,84,64,40,29.80,29.67,12,5,26,0.08
2013-8-2,78.6,63.9,48.9,54.7,49.3,43.2,97,64,33,29.78,29.67,15,4,21,0.01
2013-8-3,81.1,66.4,56.5,55.2,51.3,46.4,86,62,30,29.79,29.63,24,5,32,0.01
2013-8-4,81.1,63.4,47.1,54.3,49.5,43.3,94,66,28,29.88,29.71,12,3,21,0.03
2013-8-5,76.3,62.3,51.4,56.7,53.7,49.3,96,76,44,29.87,29.70,17,3,21,0.10
2013-8-6,76.5,61.0,48.6,55.9,52.0,47.1,96,75,37,29.82,29.68,14,4,18,0.05
2013-8-7,70.5,56.8,49.3,55.9,51.8,47.8,97,85,50,29.80,29.70,11,2,19,0.07
2013-8-8,68.5,55.3,47.1,54.0,48.7,44.2,97,80,47,29.92,29.77,12,4,23,0.03
2013-8-9,72.0,55.1,36.7,49.3,44.3,35.4,97,71,37,30.01,29.92,14,3,23,0.00
2013-8-10,76.8,57.1,42.6,51.1,46.3,39.4,97,72,28,30.06,29.84,20,5,32,0.30
2013-8-11,74.5,57.0,41.4,50.0,45.8,37.9,97,71,27,30.06,29.87,10,2,13,0.00
2013-8-12,75.0,59.6,46.8,51.3,47.6,43.9,90,67,36,29.93,29.79,19,4,26,0.00
2013-8-13,72.1,59.1,43.3,50.7,46.4,41.4,96,67,37,29.95,29.83,19,3,33,0.00
2013-8-14,76.3,62.3,45.9,50.0,43.8,35.2,92,57,23,29.93,29.75,13,4,19,0.00
2013-8-15,80.1,61.5,41.2,46.8,40.3,31.8,91,53,18,29.94,29.78,11,3,21,0.00
2013-8-16,82.6,64.8,43.2,46.4,38.1,24.6,83,45,12,29.92,29.76,11,4,14,0.00
2013-8-17,83.8,67.8,50.7,45.0,39.6,28.2,72,40,14,29.84,29.63,14,4,19,0.00
2013-8-18,82.6,65.4,47.7,47.7,43.2,37.4,76,47,25,29.81,29.68,17,4,24,0.00
2013-8-19,82.9,65.4,48.4,52.3,47.2,42.8,88,55,28,29.83,29.67,21,4,23,0.00
2013-8-20,84.0,64.3,43.5,50.9,45.0,37.4,93,56,19,29.82,29.67,9,3,23,0.00
2013-8-21,84.0,63.2,46.0,54.3,47.3,41.0,89,62,22,29.84,29.66,14,3,38,1.14
2013-8-22,80.1,65.1,53.2,57.0,53.1,46.6,94,68,31,29.86,29.68,15,4,29,0.08
2013-8-23,80.2,65.9,52.2,55.4,47.0,32.4,93,58,18,29.79,29.60,12,5,20,0.02
2013-8-24,76.3,65.5,54.5,53.2,49.5,46.4,79,58,35,29.78,29.65,15,5,26,0.01
2013-8-25,75.4,63.3,54.0,57.9,53.3,49.6,90,71,46,29.88,29.77,16,5,29,0.03
2013-8-26,80.2,65.5,50.5,55.9,52.0,47.8,95,66,33,29.93,29.71,7,2,10,0.00
2013-8-27,83.8,66.1,50.5,59.5,50.4,45.5,86,60,29,29.81,29.63,16,3,24,0.08
2013-8-28,81.7,66.6,50.2,56.3,48.4,42.1,87,56,25,29.78,29.66,11,3,11,0.00
2013-8-29,84.6,66.8,48.0,52.7,46.8,40.1,89,53,21,29.86,29.73,18,3,23,0.00
2013-8-30,83.7,69.5,50.7,51.8,45.4,40.1,79,47,22,29.86,29.65,12,2,20,0.00
2013-8-31,82.9,67.5,53.6,52.5,47.5,43.7,73,51,27,29.71,29.57,19,3,25,0.00
2013-9-1,82.0,66.5,51.1,56.1,50.8,44.8,90,61,27,29.76,29.63,14,4,20,0.02
2013-9-2,80.8,65.5,54.3,55.6,52.1,47.7,93,66,32,29.81,29.66,13,3,23,0.00
2013-9-3,83.8,66.2,51.8,53.8,50.1,46.0,88,60,28,29.83,29.70,14,3,24,0.00
2013-9-4,84.2,67.4,49.5,52.2,47.4,41.7,87,54,23,29.89,29.74,13,4,14,0.00
2013-9-5,83.7,68.1,49.3,47.7,42.8,39.0,73,43,24,29.90,29.71,11,3,18,0.00
2013-9-6,83.7,67.2,48.7,49.3,41.7,36.9,69,42,23,29.87,29.64,21,5,32,0.00
2013-9-7,82.6,65.5,49.5,54.0,43.2,37.9,75,48,22,29.81,29.63,23,4,30,0.04
2013-9-8,80.8,65.8,51.6,51.1,45.5,37.2,77,51,21,29.73,29.50,15,4,17,0.00
2013-9-9,79.0,66.2,53.8,50.5,46.4,40.8,76,51,26,29.60,29.42,12,5,18,0.00
2013-9-10,72.0,59.9,51.6,53.6,48.6,42.6,94,68,39,29.80,29.57,11,5,19,0.17
2013-9-11,70.3,59.0,53.4,55.8,53.4,51.4,97,83,55,29.83,29.75,8,1,15,0.09
2013-9-12,68.7,57.5,48.6,56.1,52.9,47.1,97,86,55,29.90,29.79,12,3,23,0.09
2013-9-13,60.1,55.1,50.4,54.9,52.4,48.4,96,91,75,29.82,29.70,16,6,20,0.46
2013-9-14,65.5,52.8,46.0,53.4,49.1,45.0,97,88,64,29.82,29.69,12,2,17,0.07
2013-9-15,68.0,54.2,40.3,52.3,47.2,39.2,98,80,48,29.95,29.82,11,3,16,0.03
2013-9-16,69.3,57.0,45.7,52.2,49.7,44.4,97,79,47,29.98,29.80,7,1,15,0.00
2013-9-17,72.1,59.2,46.9,52.0,49.1,44.8,96,72,39,29.88,29.62,9,2,14,0.00
2013-9-18,69.6,58.6,50.0,56.1,50.3,43.9,94,76,46,29.72,29.57,16,5,24,0.22
2013-9-19,71.2,55.1,43.9,54.1,47.4,37.6,97,78,32,29.81,29.68,18,3,21,0.07
2013-9-20,71.8,54.7,40.5,48.7,43.2,36.0,97,70,27,29.91,29.76,8,2,9,0.01
2013-9-21,73.8,55.5,40.1,52.5,43.4,36.7,96,69,27,29.87,29.63,14,3,27,0.01
2013-9-22,66.9,52.5,41.2,54.0,46.7,39.4,93,82,45,29.67,29.35,24,7,29,0.91
2013-9-23,59.7,48.8,39.6,39.0,35.5,28.9,94,64,31,29.98,29.44,21,7,32,0.00
2013-9-24,68.2,48.1,29.3,41.0,35.1,27.9,95,66,29,30.12,29.84,5,1,9,0.00
2013-9-25,71.8,54.7,34.5,41.7,35.9,31.6,91,55,24,29.85,29.46,19,7,32,0.00
2013-9-26,70.3,58.6,45.3,34.3,28.6,21.4,53,34,17,29.53,29.40,25,10,29,0.00
2013-9-27,62.1,50.1,33.6,42.1,33.4,22.6,72,53,40,29.85,29.43,26,11,33,0.00
2013-9-28,60.3,41.5,23.4,28.4,23.6,19.8,89,55,21,30.20,29.86,3,1,10,0.00
2013-9-29,68.7,47.5,28.8,33.1,27.8,23.0,88,53,19,30.16,29.87,7,2,13,0.00
2013-9-30,72.7,52.9,32.2,35.8,30.4,23.5,88,49,18,29.94,29.70,9,2,10,0.00
2013-10-1,74.1,53.9,32.4,39.2,32.9,28.0,90,51,23,29.86,29.66,9,3,16,0.00
2013-10-2,72.0,52.2,32.0,31.3,24.6,15.6,82,40,12,29.85,29.65,11,3,17,0.00
2013-10-3,69.8,51.2,33.1,33.8,25.8,20.3,73,41,17,29.73,29.49,23,8,31,0.00
2013-10-4,51.3,43.7,32.5,29.5,17.9,6.8,74,38,19,30.00,29.50,19,10,24,0.00
2013-10-5,54.9,37.2,19.9,19.0,14.5,9.0,76,44,16,30.25,30.01,12,5,23,0.00
2013-10-6,64.9,41.1,18.7,23.0,16.8,9.9,85,45,14,30.38,30.19,5,2,8,0.00
2013-10-7,70.3,46.2,24.6,26.1,22.3,16.5,75,44,17,30.23,29.93,7,3,15,0.00
2013-10-8,69.4,48.5,28.8,29.1,24.2,20.7,78,43,18,29.96,29.65,20,5,25,0.00
2013-10-9,67.6,49.1,28.9,34.3,25.9,19.9,78,45,17,29.78,29.65,17,6,23,0.00
2013-10-10,60.1,42.2,30.9,39.4,33.2,25.9,90,73,37,29.75,29.41,28,10,46,0.13
2013-10-11,53.1,38.7,26.4,31.5,28.2,23.4,89,68,40,30.02,29.72,9,3,13,0.00
2013-10-12,60.3,41.1,24.4,33.8,27.6,17.8,94,64,19,30.12,29.95,19,5,26,0.01
2013-10-13,65.8,48.1,27.5,42.1,32.9,24.4,91,61,23,30.08,29.76,19,9,30,0.23
2013-10-14,55.0,44.7,32.5,39.0,27.9,20.1,84,55,27,29.94,29.70,18,8,26,0.00
2013-10-15,53.8,37.0,21.7,34.0,25.6,19.8,93,68,27,30.08,29.90,14,3,18,0.00
2013-10-16,47.1,34.9,27.0,34.0,28.7,22.1,96,80,43,30.10,29.95,9,2,13,0.33
2013-10-17,49.8,36.1,23.2,31.8,26.1,20.7,92,69,41,30.16,29.89,7,2,12,0.00
2013-10-18,48.6,36.1,23.7,28.0,19.1,9.9,90,56,22,30.17,29.93,21,7,31,0.00
2013-10-19,54.7,36.4,21.4,24.3,19.1,15.3,79,53,25,30.22,30.01,7,2,10,0.00
2013-10-20,54.9,38.7,19.0,29.8,22.5,16.2,91,57,24,30.04,29.86,6,2,12,0.00
2013-10-21,54.9,38.5,21.7,30.2,22.5,15.8,94,59,23,30.14,29.94,8,2,16,0.00
2013-10-22,59.9,38.7,19.9,25.7,20.8,16.2,87,55,20,30.29,30.12,6,2,8,0.00
2013-10-23,63.0,40.6,19.2,27.3,21.2,15.6,90,54,16,30.23,30.05,5,1,11,0.00
2013-10-24,63.1,41.9,21.2,27.1,23.6,18.5,90,55,21,30.20,30.03,7,2,11,0.00
2013-10-25,57.6,45.8,36.1,39.9,35.0,27.3,92,67,41,30.14,29.93,6,3,11,0.19
2013-10-26,58.6,41.3,29.1,39.9,31.4,25.7,97,73,28,30.23,30.05,5,2,11,0.00
2013-10-27,59.7,41.2,24.3,35.4,28.8,22.1,94,66,26,30.17,29.80,8,3,14,0.00
2013-10-28,59.0,43.4,26.1,36.3,27.2,21.0,93,59,24,29.84,29.70,22,7,28,0.00
2013-10-29,54.7,42.1,29.3,36.0,26.9,21.2,87,59,28,29.87,29.70,25,12,32,0.02
2013-10-30,47.1,37.2,27.0,34.0,24.2,16.9,93,62,31,29.81,29.71,20,6,31,0.00
2013-10-31,47.3,32.6,19.2,19.8,17.2,14.5,85,56,28,30.06,29.80,15,5,21,0.00
2013-11-1,50.4,36.0,24.3,23.7,19.9,15.6,80,56,25,30.26,30.05,20,7,25,0.00
2013-11-2,57.6,35.1,15.6,24.3,19.6,11.5,89,58,25,30.35,30.01,11,3,13,0.00
2013-11-3,54.1,38.4,20.7,27.9,21.9,16.0,83,54,31,30.00,29.64,19,7,28,0.00
2013-11-4,54.7,37.4,19.4,34.0,21.2,12.7,90,58,19,29.87,29.73,24,7,31,0.00
2013-11-5,42.3,33.0,14.4,34.7,21.7,3.9,94,66,28,30.19,29.70,16,6,26,0.00
2013-11-6,45.0,25.4,7.9,13.6,8.6,3.0,81,53,24,30.59,30.20,8,2,14,0.00
2013-11-7,52.2,29.8,11.3,18.3,14.0,7.3,87,57,26,30.66,30.31,7,2,9,0.00
2013-11-8,62.1,39.8,22.8,21.0,17.5,13.8,76,46,15,30.30,29.93,8,4,12,0.00
2013-11-9,57.9,36.0,15.4,20.8,16.7,10.2,83,51,21,30.24,30.06,5,2,9,0.00
2013-11-10,58.5,35.6,15.1,22.5,17.1,10.9,86,52,21,30.37,30.19,8,2,11,0.00
2013-11-11,58.5,35.7,15.8,21.6,15.9,11.8,87,51,17,30.44,30.29,8,2,11,0.00
2013-11-12,57.2,35.1,15.4,24.3,16.8,10.0,82,54,16,30.59,30.44,7,2,10,0.00
2013-11-13,54.0,33.4,14.7,25.5,19.1,12.2,91,61,25,30.49,30.13,7,2,8,0.00
2013-11-14,53.6,35.1,22.1,29.7,22.8,17.6,91,65,25,30.13,29.87,9,3,13,0.00
2013-11-15,53.1,34.8,19.8,34.2,24.8,15.8,91,71,28,29.87,29.57,22,6,32,0.02
2013-11-16,47.7,36.9,22.6,32.2,26.9,20.7,94,70,38,29.57,29.44,22,9,34,0.00
2013-11-17,50.2,35.4,21.7,27.3,22.2,17.1,86,62,31,30.14,29.55,10,4,14,0.00
2013-11-18,50.4,29.6,12.7,25.3,17.5,9.9,91,65,31,30.33,30.16,8,2,8,0.00
2013-11-19,52.5,31.2,10.8,25.5,17.8,7.5,92,61,30,30.22,29.91,7,2,13,0.00
2013-11-20,48.4,34.2,13.5,32.2,23.7,9.9,90,68,41,29.97,29.77,10,3,15,0.00
2013-11-21,51.1,38.9,27.1,35.8,30.5,21.6,96,75,31,30.03,29.83,19,8,31,0.00
2013-11-22,31.8,28.1,23.5,29.3,26.4,21.7,96,94,89,30.40,30.02,14,3,18,0.02
2013-11-23,31.6,28.6,26.4,27.9,26.1,23.4,96,90,83,30.47,30.29,7,3,9,0.12
2013-11-24,27.1,24.2,19.9,25.7,22.4,18.3,95,92,87,30.28,30.06,6,2,10,0.00
2013-11-25,32.5,20.1,9.3,26.6,17.1,7.0,93,88,74,30.51,30.08,5,2,8,0.05
2013-11-26,23.0,6.4,-3.8,18.3,3.3,-7.2,91,86,79,30.88,30.52,4,1,5,0.03
2013-11-27,13.6,3.5,-6.5,10.9,0.5,-10.3,90,87,83,30.90,30.73,3,0,4,0.00
2013-11-28,17.1,2.3,-7.8,13.8,-0.9,-11.6,91,86,83,30.88,30.78,3,0,3,0.01
2013-11-29,12.7,-1.3,-9.8,10.0,-4.6,-13.5,90,85,82,31.01,30.87,3,0,6,0.00
2013-11-30,17.1,0.6,-10.1,13.3,-2.7,-13.9,91,86,83,31.05,30.88,2,0,2,0.00
2013-12-1,15.8,0.5,-7.2,12.7,-2.9,-10.8,92,86,82,30.94,30.76,2,0,4,0.00
2013-12-2,17.4,5.7,-6.9,15.4,2.9,-10.5,92,88,84,30.78,30.29,3,0,8,0.00
2013-12-3,39.9,18.2,-5.4,31.6,12.2,-8.9,91,79,56,30.29,29.76,18,4,26,0.02
2013-12-4,36.9,29.7,11.1,30.9,22.0,4.1,82,73,62,29.81,29.39,35,14,39,0.00
2013-12-5,18.9,6.2,-3.5,8.8,-0.3,-8.3,84,74,63,30.22,29.82,7,2,10,0.00
2013-12-6,22.5,3.9,-13.4,9.3,-3.2,-17.7,83,73,52,30.52,30.22,14,3,14,0.00
2013-12-7,26.2,9.1,-10.5,19.8,4.6,-15.0,92,82,70,30.52,29.98,17,5,24,0.00
2013-12-8,23.0,14.5,-5.1,20.3,4.3,-11.6,92,65,41,30.14,29.81,18,7,27,0.00
2013-12-9,13.3,-4.5,-18.9,-0.9,-12.0,-23.6,84,70,50,30.99,30.16,5,2,7,0.00
2013-12-10,10.2,-7.0,-21.8,-1.3,-13.9,-27.2,83,72,53,31.04,30.89,4,1,5,0.00
2013-12-11,17.1,-1.7,-14.4,4.6,-8.0,-18.8,83,75,57,31.16,31.00,4,1,6,0.00
2013-12-12,19.0,-2.2,-16.1,6.3,-7.8,-20.6,85,77,57,31.17,30.78,7,1,8,0.00
2013-12-13,21.0,0.1,-14.3,9.0,-5.4,-18.9,85,78,59,30.77,30.51,3,1,4,0.00
2013-12-14,26.1,6.1,-8.9,13.1,-0.1,-12.8,87,76,57,30.90,30.68,5,2,8,0.00
2013-12-15,25.7,5.7,-8.0,13.8,-0.1,-12.3,86,77,60,30.90,30.79,5,1,8,0.00
2013-12-16,28.8,6.6,-8.1,16.9,1.1,-12.1,87,79,59,30.94,30.81,3,1,5,0.00
2013-12-17,30.0,6.4,-7.2,15.8,1.6,-11.0,89,81,55,31.03,30.84,4,1,5,0.00
2013-12-18,21.9,7.5,-4.0,15.6,3.9,-7.6,90,85,75,30.83,30.37,3,1,5,0.00
2013-12-19,26.8,10.7,-0.9,17.1,6.3,-4.4,90,83,65,30.37,30.05,7,1,9,0.00
2013-12-20,29.7,10.4,-1.7,19.8,6.2,-4.9,90,83,66,30.13,29.96,3,1,8,0.00
2013-12-21,29.1,11.1,-8.0,19.0,6.6,-11.7,92,82,59,30.11,29.90,5,1,5,0.00
2013-12-22,25.5,10.0,-4.5,12.7,4.1,-8.1,90,78,51,30.59,30.13,6,2,8,0.00
2013-12-23,24.4,3.6,-12.8,11.5,-2.2,-17.0,87,77,57,30.94,30.59,6,2,6,0.00
2013-12-24,25.9,6.5,-8.1,12.7,0.8,-12.1,85,78,57,30.92,30.62,7,2,12,0.00
2013-12-25,26.8,7.9,-7.4,10.2,0.8,-11.9,87,74,49,30.87,30.75,6,2,12,0.00
2013-12-26,21.9,1.7,-15.2,9.1,-3.8,-19.8,87,78,54,30.97,30.84,5,1,6,0.00
2013-12-27,26.2,4.4,-9.8,12.2,-1.2,-13.7,87,78,55,30.99,30.78,3,1,5,0.00
2013-12-28,19.0,6.5,-6.3,15.6,2.5,-10.1,90,83,73,30.77,30.43,5,1,6,0.00
2013-12-29,29.3,16.4,-0.8,22.1,12.8,-4.0,92,86,73,30.43,30.27,5,1,7,0.11
2013-12-30,19.8,7.2,-6.9,17.1,4.3,-10.5,93,87,83,30.79,30.43,3,0,4,0.02
2013-12-31,12.9,-2.4,-11.4,9.5,-6.0,-15.3,88,84,81,30.90,30.78,3,1,5,0.00
2014-1-1,30.0,8.3,-9.9,18.3,2.5,-13.9,87,78,56,30.77,30.66,9,2,13,0.00
2014-1-2,27.9,6.0,-11.2,13.8,-0.1,-15.2,88,77,55,30.83,30.69,3,1,7,0.00